STARLINK-33678, 63509

Orbit data source: Space-Track

STARLINK-33678, 63509 is a payload satellite owned by SpaceX/Seattle (US) in LEO that was launched on Mon, 07 Apr 2025 UTC via an FALCON 9 launch vehicle from the Air Force Western Test Range (AFWTR). Payload-class satellites include a variety of spacecraft equipped with specific instruments for various scientific and technological missions. These include communications satellites like Starlink; space stations such as the ISS; scientific satellites like the Hubble; Earth observation satellites from companies like Planet Labs, Umbra, and HawkEye 360; GPS; miniature CubeSats for education and research; and military/defense satellites.

Loading next visibility...
Identifier
63509, 2025-071S
Orbit
LEO
Country
Flag of USUS
Related business
Manufacturer
SpaceX/Seattle
Mission
Operational Commercial Communications
Bus & Motor
STARLINK V2MO, Unknown motor
Mass
575 kg wet, ~530 kg dry
Launch date (UTC)
2025-04-07 (1 year ago)
Launch vehicle
FALCON 9
Launch site
Air Force Western Test Range (AFWTR)
Object type
Payload
Rocket body
Debris
Shape & HBR
Box + 1 Pan, 17.7 m
Radar Cross Section
41.120 m², Large (>1 m²)

Expand to show TLE details & history
Last TLE update: 14 hours ago

TLE from 14 hours ago
0 STARLINK-33678
1 63509U 25071S   26262.88513977  .00016175  00000-0  53153-3 0  9994
2 63509  53.1593 316.3395 0001460  44.2312 315.8806 15.31719188 82250
Epoch: 2026-09-19T21:14Z
TLE epoch observation values (Epoch: 2026-09-19T21:14:36.076Z)
Latitude
Longitude
-1.09807°
Altitude
470.865 km
Speed
7.632 km/s
True Right ascension
21h 05m 21s
True Declination
0° 00' 00"
Sunlit
Object was in full shadow at epoch
Visualization orbit readout
Latitude
Unknown
Longitude
Unknown
Altitude
Unknown
Speed
Unknown
Apparent Right ascension
Unknown
Apparent Declination
Unknown
Sunlit
N/A
Visualization observer readout
Local Sidereal Time
03:42:02
Azimuth
Unknown
Elevation
Unknown
Doppler factor
Unknown
Orbital elements
Apogee altitude
471.939 km
Perigee altitude
469.94 km
Semi-major axis
6,849.077 km
Eccentricity
0.00015
Inclination
53.1593°
RAAN
316.3395°
Arg. of periapsis
44.2312°
True anomaly
315.86895°
Mean anomaly
315.8806°
Eccentric anomaly
315.87478°
Mean motion
3.82909 °/min
Orbital period
94.02 mins
BSTAR
0.00053153
Loading maneuver chart data...
Computing Atmospheric mass density...
Loading historical data...
Loading historical data...
Loading historical data...
Loading historical data...
Loading historical data...
Loading historical data...
Loading historical data...

Documentation

Showing up to 5 results
|